• In Österreich
  • Länderverzeichnis
  • Für 7 Tage
  • Wassertemperatur
  • Satellitenkarten
  • Wetterkarte
  • News
  • Widgets
  • user-avatar
    Anmelden

    Stündliche Wetter Mayrhofen

    Heute, 22 Oktober, Montag

    Zeit Temperatur Niederschläge Wind Luftdruck Luftfeuchtigkeit
    00:00 -1°C° 0 mm 1 m/S 619 mmHg 75%
    01:00 -1°C° 0 mm 1 m/S 619 mmHg 72%
    02:00 -1°C° 0 mm 1 m/S 619 mmHg 69%
    03:00 -1°C° 0 mm 1 m/S 619 mmHg 66%
    04:00 -1°C° 0 mm 1 m/S 619 mmHg 63%
    05:00 0°C° 0 mm 1 m/S 619 mmHg 61%
    06:00 0°C° 0 mm 1 m/S 619 mmHg 58%
    07:00 0°C° 0 mm 1 m/S 619 mmHg 56%
    08:00 +3°C° 0 mm 1 m/S 620 mmHg 48%
    09:00 +4°C° 0 mm 2 m/S 621 mmHg 41%
    10:00 +7°C° 0 mm 2 m/S 622 mmHg 33%
    11:00 +8°C° 0 mm 2 m/S 622 mmHg 34%
    12:00 +9°C° 0 mm 2 m/S 622 mmHg 35%
    13:00 +9°C° 0 mm 2 m/S 623 mmHg 36%
    14:00 +8°C° 0 mm 2 m/S 622 mmHg 42%
    15:00 +7°C° 0 mm 2 m/S 622 mmHg 49%
    16:00 +7°C° 0 mm 2 m/S 622 mmHg 55%
    17:00 +4°C° 0 mm 2 m/S 621 mmHg 65%
    18:00 +2°C° 0 mm 2 m/S 621 mmHg 76%
    19:00 -1°C° 0 mm 2 m/S 621 mmHg 87%
    20:00 -1°C° 0 mm 2 m/S 621 mmHg 87%
    21:00 -2°C° 0 mm 2 m/S 621 mmHg 88%
    22:00 -2°C° 0 mm 2 m/S 622 mmHg 88%
    23:00 -2°C° 0 mm 2 m/S 622 mmHg 88%

    Morgen, 23 Oktober, Dienstag

    Zeit Temperatur Niederschläge Wind Luftdruck Luftfeuchtigkeit
    00:00 -1°C° 0 mm 2 m/S 622 mmHg 87%
    01:00 -1°C° 0 mm 2 m/S 622 mmHg 86%
    02:00 -1°C° 0 mm 2 m/S 622 mmHg 84%
    03:00 -2°C° 0 mm 2 m/S 621 mmHg 82%
    04:00 0°C° 0 mm 1 m/S 621 mmHg 80%
    05:00 -2°C° 0 mm 2 m/S 621 mmHg 80%
    06:00 -2°C° 0 mm 2 m/S 621 mmHg 81%
    07:00 -2°C° 0 mm 2 m/S 621 mmHg 81%
    08:00 +2°C° 0 mm 2 m/S 622 mmHg 70%
    09:00 +4°C° 0 mm 2 m/S 623 mmHg 60%
    10:00 +7°C° 0 mm 2 m/S 624 mmHg 50%
    11:00 +8°C° 0 mm 2 m/S 624 mmHg 46%
    12:00 +9°C° 0 mm 2 m/S 624 mmHg 42%
    13:00 +10°C° 0 mm 3 m/S 624 mmHg 39%
    14:00 +9°C° 0 mm 2 m/S 623 mmHg 43%
    15:00 +8°C° 0 mm 2 m/S 622 mmHg 47%
    16:00 +8°C° 0 mm 2 m/S 622 mmHg 51%
    17:00 +6°C° 0 mm 2 m/S 621 mmHg 58%
    18:00 +4°C° 0 mm 2 m/S 621 mmHg 66%
    19:00 +2°C° 0 mm 2 m/S 620 mmHg 73%
    20:00 +3°C° 0.1 mm 2 m/S 621 mmHg 71%
    21:00 +3°C° 0.1 mm 2 m/S 621 mmHg 70%
    22:00 +3°C° 0.1 mm 2 m/S 621 mmHg 68%
    23:00 +3°C° 0.1 mm 2 m/S 621 mmHg 69%

    übermorgen, 24 Oktober, Mittwoch

    Zeit Temperatur Niederschläge Wind Luftdruck Luftfeuchtigkeit
    00:00 +2°C° 0.1 mm 3 m/S 620 mmHg 69%
    01:00 +2°C° 0.1 mm 3 m/S 620 mmHg 70%
    02:00 +2°C° 0.1 mm 3 m/S 620 mmHg 72%
    03:00 +2°C° 0.1 mm 3 m/S 620 mmHg 74%
    04:00 +2°C° 0.1 mm 3 m/S 620 mmHg 77%
    05:00 +2°C° 0.4 mm 3 m/S 619 mmHg 80%
    06:00 +2°C° 0.4 mm 3 m/S 619 mmHg 84%
    07:00 +2°C° 0.4 mm 3 m/S 619 mmHg 87%
    08:00 +3°C° 0.6 mm 3 m/S 619 mmHg 86%
    09:00 +4°C° 0.6 mm 3 m/S 619 mmHg 86%
    10:00 +5°C° 0.6 mm 3 m/S 620 mmHg 85%
    11:00 +5°C° 0.8 mm 3 m/S 620 mmHg 85%
    12:00 +5°C° 0.8 mm 3 m/S 620 mmHg 84%
    13:00 +7°C° 0.8 mm 3 m/S 620 mmHg 84%
    14:00 +5°C° 0.6 mm 3 m/S 620 mmHg 86%
    15:00 +5°C° 0.6 mm 3 m/S 619 mmHg 87%
    16:00 +5°C° 0.6 mm 3 m/S 619 mmHg 89%
    17:00 +4°C° 0.3 mm 3 m/S 619 mmHg 91%
    18:00 +4°C° 0.3 mm 3 m/S 619 mmHg 93%
    19:00 +3°C° 0.3 mm 3 m/S 619 mmHg 95%
    20:00 +3°C° 0.1 mm 3 m/S 619 mmHg 95%
    21:00 +3°C° 0.1 mm 3 m/S 620 mmHg 95%
    22:00 +4°C° 0.1 mm 2 m/S 620 mmHg 95%
    23:00 +4°C° 0.1 mm 2 m/S 620 mmHg 95%

    25 Oktober, Donnerstag

    Zeit Temperatur Niederschläge Wind Luftdruck Luftfeuchtigkeit
    00:00 +3°C° 0.1 mm 2 m/S 620 mmHg 96%
    01:00 +3°C° 0.1 mm 2 m/S 620 mmHg 96%
    02:00 +3°C° 0 mm 2 m/S 619 mmHg 95%
    03:00 +2°C° 0 mm 2 m/S 619 mmHg 95%
    04:00 +2°C° 0 mm 2 m/S 619 mmHg 95%
    05:00 +1°C° 0 mm 2 m/S 618 mmHg 93%
    06:00 +1°C° 0 mm 2 m/S 618 mmHg 92%
    07:00 -1°C° 0 mm 2 m/S 618 mmHg 90%
    08:00 +4°C° 0 mm 1 m/S 618 mmHg 79%
    09:00 +7°C° 0 mm 1 m/S 619 mmHg 67%
    10:00 +10°C° 0 mm 1 m/S 620 mmHg 56%
    11:00 +11°C° 0 mm 1 m/S 620 mmHg 51%
    12:00 +12°C° 0 mm 2 m/S 620 mmHg 46%
    13:00 +13°C° 0 mm 2 m/S 620 mmHg 41%
    14:00 +12°C° 0 mm 2 m/S 620 mmHg 48%
    15:00 +11°C° 0 mm 1 m/S 619 mmHg 54%
    16:00 +10°C° 0 mm 1 m/S 619 mmHg 60%
    17:00 +8°C° 0 mm 1 m/S 618 mmHg 68%
    18:00 +5°C° 0 mm 1 m/S 617 mmHg 75%
    19:00 +3°C° 0 mm 1 m/S 616 mmHg 82%
    20:00 +3°C° 0 mm 1 m/S 616 mmHg 80%
    21:00 +3°C° 0 mm 1 m/S 616 mmHg 78%
    22:00 +2°C° 0 mm 1 m/S 616 mmHg 77%
    23:00 +2°C° 0 mm 1 m/S 615 mmHg 73%

    26 Oktober, Freitag

    Zeit Temperatur Niederschläge Wind Luftdruck Luftfeuchtigkeit
    00:00 +2°C° 0 mm 1 m/S 615 mmHg 68%
    01:00 +2°C° 0 mm 1 m/S 615 mmHg 64%
    02:00 +2°C° 0 mm 1 m/S 614 mmHg 61%
    03:00 +2°C° 0 mm 1 m/S 614 mmHg 57%
    04:00 +1°C° 0 mm 2 m/S 614 mmHg 53%
    05:00 +1°C° 0 mm 2 m/S 614 mmHg 54%
    06:00 +1°C° 0 mm 2 m/S 614 mmHg 54%
    07:00 +1°C° 0 mm 2 m/S 613 mmHg 55%
    08:00 +4°C° 0 mm 2 m/S 614 mmHg 52%
    09:00 +6°C° 0 mm 2 m/S 615 mmHg 49%
    10:00 +9°C° 0 mm 2 m/S 615 mmHg 46%
    11:00 +10°C° 0 mm 2 m/S 615 mmHg 45%
    12:00 +12°C° 0 mm 2 m/S 615 mmHg 44%
    13:00 +12°C° 0 mm 2 m/S 615 mmHg 43%
    14:00 +10°C° 0 mm 2 m/S 614 mmHg 50%
    15:00 +9°C° 0 mm 2 m/S 614 mmHg 58%
    16:00 +8°C° 0 mm 2 m/S 613 mmHg 65%
    17:00 +7°C° 0 mm 2 m/S 612 mmHg 72%
    18:00 +5°C° 0 mm 2 m/S 612 mmHg 79%
    19:00 +4°C° 0 mm 2 m/S 611 mmHg 87%
    20:00 +4°C° 0.1 mm 2 m/S 611 mmHg 88%
    21:00 +4°C° 0.1 mm 2 m/S 611 mmHg 88%
    22:00 +4°C° 0.1 mm 2 m/S 611 mmHg 89%
    23:00 +4°C° 0.1 mm 2 m/S 611 mmHg 90%

    27 Oktober, Samstag

    Zeit Temperatur Niederschläge Wind Luftdruck Luftfeuchtigkeit
    00:00 +3°C° 0.1 mm 2 m/S 610 mmHg 91%
    01:00 +3°C° 0.1 mm 2 m/S 610 mmHg 92%
    02:00 +3°C° 0.3 mm 2 m/S 609 mmHg 92%
    03:00 +3°C° 0.3 mm 2 m/S 608 mmHg 92%
    04:00 +3°C° 0.3 mm 2 m/S 608 mmHg 91%
    05:00 +3°C° 1 mm 2 m/S 607 mmHg 92%
    06:00 +3°C° 1 mm 2 m/S 607 mmHg 93%
    07:00 +4°C° 1 mm 2 m/S 606 mmHg 94%
    08:00 +4°C° 1.3 mm 2 m/S 606 mmHg 94%
    09:00 +4°C° 1.3 mm 2 m/S 607 mmHg 94%
    10:00 +3°C° 1.3 mm 3 m/S 607 mmHg 94%
    11:00 +4°C° 2.2 mm 2 m/S 606 mmHg 95%
    12:00 +4°C° 2.2 mm 2 m/S 606 mmHg 95%
    13:00 +3°C° 2.2 mm 2 m/S 606 mmHg 96%
    14:00 +3°C° 3.1 mm 2 m/S 605 mmHg 96%
    15:00 +2°C° 3.1 mm 2 m/S 604 mmHg 96%
    16:00 +1°C° 3.1 mm 2 m/S 604 mmHg 96%
    17:00 -1°C° 3.6 mm 2 m/S 604 mmHg 96%
    18:00 -2°C° 3.6 mm 2 m/S 603 mmHg 97%
    19:00 -3°C° 3.6 mm 2 m/S 603 mmHg 97%
    20:00 -3°C° 3 mm 2 m/S 603 mmHg 97%
    21:00 -3°C° 3 mm 2 m/S 603 mmHg 97%
    22:00 -4°C° 3 mm 2 m/S 603 mmHg 97%
    23:00 -4°C° 0.7 mm 2 m/S 603 mmHg 97%

    28 Oktober, Sonntag

    Zeit Temperatur Niederschläge Wind Luftdruck Luftfeuchtigkeit
    00:00 -2°C° 0.7 mm 1 m/S 603 mmHg 96%
    01:00 -3°C° 0.7 mm 1 m/S 603 mmHg 96%
    02:00 -3°C° 0.2 mm 1 m/S 603 mmHg 96%
    03:00 -3°C° 0.2 mm 1 m/S 603 mmHg 96%
    04:00 -4°C° 0.2 mm 1 m/S 603 mmHg 96%
    05:00 -4°C° 0.2 mm 1 m/S 604 mmHg 96%
    06:00 -4°C° 0.2 mm 1 m/S 604 mmHg 96%
    07:00 -4°C° 0.2 mm 1 m/S 605 mmHg 97%
    08:00 -3°C° 0.2 mm 1 m/S 606 mmHg 95%
    09:00 -1°C° 0.2 mm 1 m/S 607 mmHg 93%
    10:00 0°C° 0.2 mm 1 m/S 608 mmHg 91%
    11:00 0°C° 0.2 mm 1 m/S 608 mmHg 91%
    12:00 +1°C° 0.2 mm 1 m/S 608 mmHg 91%
    13:00 -1°C° 0.2 mm 2 m/S 608 mmHg 91%
    14:00 +1°C° 0.2 mm 1 m/S 609 mmHg 91%
    15:00 +1°C° 0.2 mm 1 m/S 609 mmHg 92%
    16:00 0°C° 0.2 mm 1 m/S 609 mmHg 92%
    17:00 -1°C° 0.1 mm 1 m/S 609 mmHg 93%
    18:00 -2°C° 0.1 mm 1 m/S 609 mmHg 95%
    19:00 -3°C° 0.1 mm 1 m/S 609 mmHg 96%
    20:00 -3°C° 0 mm 1 m/S 608 mmHg 96%
    21:00 -3°C° 0 mm 1 m/S 608 mmHg 95%
    22:00 -4°C° 0 mm 1 m/S 608 mmHg 95%
    23:00 -4°C° 0 mm 1 m/S 608 mmHg 95%
    Mehr zeigen